Regional Weather Roundup
Issued by NWS Northern Indiana

Home | Current Version | Previous Version | Text Only | Print | Product List | Glossary Off
Versions: 1 2 3 4 5 6 7 8 9 10 11 12 13 14 15 16 17 18 19 20 21 22 23 24 25 26 27 28 29 30 31 32 33 34 35 36 37 38 39 40 41 42 43 44 45 46 47 48 49 50

000
ASUS43 KIWX 210400
RWRIWX

KIWX WEATHER ROUNDUP
NATIONAL WEATHER SERVICE NORTHERN INDIANA
1200 AM EDT TUE APR 21 2015

NOTE: "FAIR" INDICATES FEW OR NO CLOUDS BELOW 12,000 FEET WITH NO
SIGNIFICANT WEATHER AND/OR OBSTRUCTIONS TO VISIBILITY.

* THESE STATIONS ARE NOT UNDER NWS QUALITY CONTROL. THEY ALSO MAY NOT
  REPORT WEATHER SUCH AS PRECIPITATION OR FOG.

INZ001>027-210500-
NORTHERN INDIANA

CITY           SKY/WX    TMP DP  RH WIND       PRES   REMARKS
SOUTH BEND     CLOUDY    45  30  55 W13       29.64S
GOSHEN         CLOUDY    44  33  65 W13       29.64S
ANGOLA*        MOCLDY    45  32  61 W15       29.62R
FORT WAYNE     LGT RAIN  45  35  68 SW16      29.68R
PERU/GRISSOM   DRIZZLE   43  37  80 W20G26    29.69S

$$
INZ028>050-210500-
CENTRAL INDIANA

CITY           SKY/WX    TMP DP  RH WIND       PRES   REMARKS
LAFAYETTE      CLOUDY    44  35  70 SW7       29.72F
KOKOMO*        MOCLDY    45  36  70 W17G24    29.72R
MUNCIE*        CLOUDY    46  36  68 W13G22    29.72S
INDIANAPOLIS   CLOUDY    46  35  65 SW14      29.75S

$$
MIZ043>046-050>051-056>058-064>065-071>073-077>080-210500-
SOUTHWEST LOWER MICHIGAN

CITY           SKY/WX    TMP DP  RH WIND       PRES   REMARKS
BATTLE CREEK   CLOUDY    43  34  70 W15       29.58F
BENTON HARBOR  CLOUDY    42  33  70 W15G24    29.61S
COLDWATER*     CLOUDY    43  32  64 W13G18    29.60S
HILLSDALE*     CLOUDY    44  35  69 W14G21    29.59S
HOLLAND        CLOUDY    43  33  68 W17       29.58R
GRAND RAPIDS   CLOUDY    41  35  79 SW12      29.55S
KALAMAZOO      CLOUDY    44  33  65 W14       29.60S
STURGIS*       PTCLDY    43  32  65 W15G22    29.61S
THREE RIVERS*  MOCLDY    44  32  63 W9G18     29.62S

$$
OHZ001>008-015>018-024>025-210500-
NORTHWEST OHIO

CITY           SKY/WX    TMP DP  RH WIND       PRES   REMARKS
DEFIANCE       PTCLDY    46  30  53 W10G22    29.65R
FINDLAY        MOCLDY    46  36  68 W20       29.65R
TOLEDO EXPRESS CLOUDY    47  31  53 W21G30    29.61R
TOLEDO METCALF MOCLDY    47  36  65 SW15      29.62S
LIMA           PTCLDY    46  35  65 W18       29.68R

$$
AND FOR LAKE MICHIGAN COASTAL AND OPEN LAKE BUOY OBSERVATIONS

STATION/POSITION TEMP    WIND        PRES    VSBY  WAVE
                 AIR SEA DIR/SP/G                  HT/PER
                 (F)     (DEG/KT/KT) (MB)    (MI)  (FT/S)
CALUMET HARBOR    45     230/ 10/ 19   N/A
MICHIGAN CITY     45     240/ 21/ 23   N/A
BURNS HARBOR      46     240/ 16/ 21 1004.4S
SAINT JOSEPH      42     210/ 13/ 16 1004.1R
MICHIGAN CITY     46 45  240/ 16/ 19   N/A           5/ 5

$$
&&



USA.gov is the U.S. government's official web portal to all federal, state and local government web resources and services.